Weather History for PHKO - March, 2013

Change the Weather History Date:

Wednesday, March 13, 2013

  Actual Average (PHTO) Record (PHTO)
Temperature  
Mean Temperature 74 °F 72 °F  
Max Temperature 81 °F 79 °F 86 °F (2007)
Min Temperature 68 °F 65 °F 59 °F (2009)
Degree Days  
Heating Degree Days 0 0  
Month to date heating degree days 0  
Since 1 July heating degree days 0  
Cooling Degree Days 10 7  
Month to date cooling degree days 88  
Year to date cooling degree days 458  
Growing Degree Days 24 (Base 50)    
Moisture  
Dew Point 62 °F    
Average Humidity 64    
Maximum Humidity 81    
Minimum Humidity 50    
Precipitation  
Precipitation 0.00 in 0.42 in 3.47 in (1977)
Month to date precipitation 5.43  
Year to date precipitation 24.25  
Snow  
Snow 0.00 in - - ()
Month to date snowfall  
Since 1 July snowfall  
Snow Depth -    
Sea Level Pressure  
Sea Level Pressure 30.02 in    
Wind  
Wind Speed 5 mph (South)    
Max Wind Speed 9 mph    
Max Gust Speed -    
Visibility 10 miles    
Events      
T = Trace of Precipitation, MM = Missing Value Source: NWS Daily Summary

Daily Weather History Graph

Daily Weather History Graph

Search for Another Location

Airport or City:

Trip Planner

Search our weather history database for the weather conditions in past years. The results will help you decide how hot, cold, wet, or windy it might be!

Date:

Astronomy

Mar. 13, 2013 Rise Set
Actual Time 6:33 AM HST 6:33 PM HST
Civil Twilight 6:11 AM HST 6:55 PM HST
Nautical Twilight 5:46 AM HST 7:20 PM HST
Astronomical Twilight 5:20 AM HST 7:46 PM HST
Moon 7:41 AM HST (3/13) 8:34 PM HST (3/13)
Length of Visible Light 12h 43m
Length of Day
11h 59m
Waxing Crescent, 5% of the Moon is Illuminated
Mar 13
Waxing Crescent
Mar 19
First Quarter
Mar 26
Full
Apr 2
Last Quarter
Apr 9
New

Hourly Weather History & Observations

Time (HST) Temp. Heat Index Dew Point Humidity Pressure Visibility Wind Dir Wind Speed Gust Speed Precip Events Conditions
12:53 AM 72.0 °F - 62.1 °F 71% 30.03 in 10.0 mi NE 4.6 mph - N/A   Clear
1:53 AM 70.0 °F - 62.1 °F 76% 30.01 in 10.0 mi North 3.5 mph - N/A   Clear
2:53 AM 69.1 °F - 62.1 °F 78% 29.99 in 10.0 mi SSE 4.6 mph - N/A   Clear
3:53 AM 68.0 °F - 62.1 °F 81% 29.98 in 10.0 mi East 3.5 mph - N/A   Clear
4:53 AM 68.0 °F - 61.0 °F 78% 29.99 in 10.0 mi East 3.5 mph - N/A   Clear
5:53 AM 68.0 °F - 61.0 °F 78% 30.01 in 10.0 mi East 3.5 mph - N/A   Clear
6:53 AM 70.0 °F - 62.1 °F 76% 30.01 in 10.0 mi East 6.9 mph - N/A   Clear
7:53 AM 73.9 °F - 62.1 °F 66% 30.03 in 10.0 mi East 5.8 mph - N/A   Clear
8:53 AM 78.1 °F - 63.0 °F 60% 30.05 in 10.0 mi Calm Calm - N/A   Clear
9:53 AM 78.1 °F - 64.9 °F 64% 30.06 in 10.0 mi WNW 6.9 mph - N/A   Clear
10:53 AM 78.1 °F - 64.0 °F 62% 30.05 in 10.0 mi West 6.9 mph - N/A   Clear
11:53 AM 80.1 °F 81.7 °F 64.0 °F 58% 30.02 in 10.0 mi West 8.1 mph - N/A   Clear
12:53 PM 79.0 °F - 63.0 °F 58% 30.01 in 10.0 mi West 5.8 mph - N/A   Clear
1:53 PM 80.1 °F 81.2 °F 62.1 °F 54% 29.98 in 10.0 mi WSW 6.9 mph - N/A   Clear
2:53 PM 81.0 °F 81.9 °F 62.1 °F 52% 29.98 in 10.0 mi West 6.9 mph - N/A   Clear
3:53 PM 81.0 °F 81.7 °F 61.0 °F 50% 29.97 in 10.0 mi West 5.8 mph - N/A   Clear
4:53 PM 79.0 °F - 61.0 °F 54% 29.98 in 10.0 mi Variable 4.6 mph - N/A   Clear
5:53 PM 78.1 °F - 62.1 °F 58% 29.99 in 10.0 mi West 3.5 mph - N/A   Clear
6:53 PM 77.0 °F - 62.1 °F 60% 30.01 in 10.0 mi WSW 4.6 mph - N/A   Clear
7:53 PM 75.9 °F - 62.1 °F 62% 30.03 in 10.0 mi South 8.1 mph - N/A   Clear
8:53 PM 75.0 °F - 62.1 °F 64% 30.04 in 10.0 mi SE 8.1 mph - N/A   Clear
9:53 PM 73.9 °F - 61.0 °F 64% 30.04 in 10.0 mi SE 9.2 mph - N/A   Clear
10:53 PM 73.9 °F - 60.1 °F 62% 30.06 in 10.0 mi SE 8.1 mph - N/A   Overcast
11:53 PM 73.9 °F - 59.0 °F 59% 30.06 in 10.0 mi SE 8.1 mph - N/A   Mostly Cloudy